Simultaneous Nadir Overpasses (SNOs) Predictions

Prediction of SNOs between AQUA and METOP-C Satellite Orbit:

Table of predicted SNOs for the next 14.0 days since TLE Epoch: 2/29/2020
Index Date (AQUA) Time (AQUA) Lat,Lon (AQUA) SZA (AQUA ) Date (METOP-C) Time (METOP-C) Lat,Lon (METOP-C) SZA (METOP-C ) Distance(km) Time Diff (sec)
1 02/29/2020 09:32:34 -73.58,-148.40 98.62 02/29/2020 09:31:21 -73.55,-148.91 98.61 16.26 73
2 02/29/2020 10:22:04 73.74, 18.90 81.54 02/29/2020 10:21:57 73.73, 18.84 81.54 1.92 7
3 02/29/2020 11:11:32 -73.83,-173.68 98.38 02/29/2020 11:12:37 -73.83,-173.60 98.39 2.54 65
4 03/03/2020 05:06:52 -73.70, -82.23 99.57 03/03/2020 05:05:41 -73.69, -82.19 99.57 1.94 71
5 03/03/2020 05:56:20 73.76, 85.29 80.48 03/03/2020 05:56:19 73.77, 85.34 80.49 1.99 1
6 03/03/2020 06:45:47 -73.80,-107.16 99.49 03/03/2020 06:47:00 -73.82,-107.22 99.49 2.72 73
7 03/06/2020 00:41:08 -73.67, -15.73 100.70 03/06/2020 00:40:05 -73.67, -15.82 100.68 2.88 63
8 03/06/2020 01:30:37 73.78, 151.67 79.41 03/06/2020 01:30:43 73.76, 151.71 79.39 3.01 6
9 03/06/2020 02:20:08 -74.03, -41.24 100.34 03/06/2020 02:21:19 -74.05, -40.26 100.37 30.24 71
10 03/08/2020 20:15:25 -73.70, 50.64 101.77 03/08/2020 20:14:28 -73.70, 50.66 101.76 0.65 57
11 03/08/2020 21:04:53 73.76,-141.84 78.29 03/08/2020 21:05:07 73.74,-141.92 78.27 3.04 14
12 03/08/2020 21:54:30 -74.32, 24.53 101.13 03/08/2020 21:55:37 -74.32, 26.85 101.22 69.80 67
13 03/11/2020 15:49:40 -73.69, 117.11 102.89 03/11/2020 15:48:51 -73.69, 117.02 102.88 2.67 49
14 03/11/2020 16:39:09 73.80, -75.49 77.21 03/11/2020 16:39:29 73.78, -75.43 77.19 3.14 20




NCC Satellite Simultaneous Nadir Overpasses (SNOs) Prediction Service
